[[{"header":{"parameterUnit":"m.s-1","parameterCategory":1,"la1":30.2991,"la2":30.254,"lo1":-89.0895,"lo2":-89.0444,"dy":0.0017,"dx":0.0017,"nx":28,"ny":28,"refTime":"2024-03-09T03:00:00:Z","depth":0,"parameterNumber":2,"parameterNumberName":"U-component_of_WINDS"},"data":[0,0,0,0,0,0,0,0,0,0,0,0,0,0,0,0,0,0,0,0,0,0,0,0,0,0,0,0,0,0,0,0,0,0,0,0,0,0,0,0,0,0,0,0,0,0,0,0,0,0,0,0,0,0,0,0,0,0,3.1781,3.1782,0,3.1873,3.1874,3.1875,3.1832,3.1829,3.1827,3.1825,3.1924,3.1929,3.1934,0,0,0,0,0,0,0,0,0,0,0,0,0,3.157,3.1574,3.178,3.1782,3.1783,3.1873,3.1874,3.1876,3.1832,3.1829,3.1826,3.1824,3.1923,3.1928,3.1934,0,0,0,0,0,0,0,0,0,0,0,0,0,3.1662,3.1575,3.178,3.1772,3.1772,3.1873,3.1874,3.1876,3.1833,3.1829,3.1826,3.1822,3.1921,3.1928,3.1935,3.2051,0,0,3.1957,3.1961,0,0,0,0,0,0,0,0,3.1657,3.167,3.1772,3.1772,3.1773,3.1837,3.1837,3.1935,3.1834,3.181,3.1825,3.182,3.1899,3.1907,3.1933,3.2056,3.206,3.1958,3.1962,3.1966,3.1968,0,0,0,0,0,0,0,3.165,3.1666,3.1817,3.1773,3.1774,3.1765,3.1774,3.1855,3.1873,3.1812,3.1809,3.182,3.1898,3.1926,3.1935,3.2062,3.1958,3.1964,3.1969,3.1972,3.2286,3.229,0,0,0,0,0,0,3.1644,3.166,3.1814,3.182,3.1705,3.1771,3.1782,3.182,3.1872,3.1876,3.1823,3.1818,3.1915,3.1926,3.1938,3.2078,3.1966,3.1972,3.1977,3.2282,3.2287,3.2291,0,0,0,0,0,0,3.1639,3.1658,3.1811,3.174,3.1758,3.1779,3.1822,3.1824,3.1851,3.188,3.1884,3.1848,3.1913,3.1928,3.2023,3.2081,3.1976,3.1982,3.2277,3.2283,3.2289,3.2359,0,0,0,0,0,0,3.1633,3.1656,3.17,3.1741,3.1762,3.1893,3.1826,3.1828,3.1864,3.1858,3.1905,3.1909,3.1911,3.2013,3.2031,3.2089,3.1988,3.2272,3.228,3.2287,3.2351,3.2366,3.2379,0,0,0,0,0,3.1626,3.1716,3.1702,3.1721,3.1816,3.1896,3.1909,3.1908,3.1868,3.1913,3.1932,3.1908,3.2072,3.2023,3.2043,3.2104,3.2269,3.2278,3.2286,3.2345,3.2363,3.2379,0,0,0,0,0,0,3.1683,3.1722,3.1706,3.1812,3.1851,3.1889,3.1945,3.1927,3.1979,3.1972,3.197,3.1981,3.208,3.2102,3.2047,3.222,3.2164,3.2178,3.2202,3.222,3.2233,3.2226,3.1994,0,0,0,0,0,3.1708,3.1768,3.1799,3.189,3.191,3.1924,3.1959,3.1955,3.1996,3.2013,3.2038,3.208,3.2141,3.2182,3.2239,3.2354,3.2364,3.2406,3.242,3.2431,3.2443,3.2507,3.2526,3.232,3.232,3.232,0,0,3.176,3.1788,3.1827,3.1902,3.1932,3.1996,3.1938,3.2008,3.2056,3.2024,3.2115,3.2136,3.2182,3.2288,3.2336,3.2309,3.2502,3.2443,3.2451,3.2457,3.2518,3.2537,3.2554,3.2326,3.2325,3.2324,0,0,3.1887,3.1915,3.1993,3.2024,3.2069,3.2078,3.2097,3.2138,3.215,3.2241,3.2218,3.2276,3.2381,3.2415,3.2447,3.2588,3.2568,3.2607,3.268,3.2741,3.2757,3.2772,3.2823,3.2841,3.2618,3.2618,3.2619,0,3.1947,3.2041,3.2036,3.2108,3.2143,3.2115,3.2195,3.2226,3.2289,3.2314,3.2282,3.2413,3.2443,3.2557,3.2591,3.2617,3.264,3.2602,3.2755,3.277,3.2783,3.2832,3.2851,3.2623,3.2622,3.2622,3.2622,0,3.2112,3.2178,3.2236,3.2296,3.2337,3.2413,3.2422,3.2464,3.2456,3.2469,3.2563,3.2598,3.2662,3.2689,3.2683,3.2803,3.2784,3.2754,3.2699,3.2807,3.2853,3.2872,3.2629,3.2628,3.2626,3.2625,0,0,3.2278,3.2334,3.2356,3.2383,3.2431,3.2483,3.2558,3.262,3.2657,3.2701,3.2765,3.2854,3.2827,3.2863,3.286,3.2914,3.3025,3.2878,3.2879,3.2905,3.316,3.3183,3.3205,3.3012,3.3016,3.3018,3.3157,0,3.241,3.254,3.2539,3.266,3.2721,3.2696,3.2762,3.28,3.2814,3.2869,3.2885,3.2949,3.2907,3.2928,3.2981,3.3001,3.3077,3.299,3.3073,3.3076,3.3063,3.3229,3.3253,3.3382,3.3175,3.3178,3.318,0,3.258,3.2629,3.2756,3.2796,3.2822,3.2881,3.2938,3.299,3.3033,3.304,3.3079,3.3069,3.3147,3.3089,3.3197,3.3139,3.3173,3.3188,3.3193,3.3201,3.3135,3.3243,3.3423,3.3443,3.3208,3.3206,3.3204,0,3.269,3.2787,3.2876,3.29,3.2948,3.2991,3.3013,3.3052,3.3089,3.314,3.3164,3.3223,3.3256,3.3303,3.3309,3.3266,3.3419,3.3361,3.3428,3.3428,3.3462,3.346,3.3652,3.3483,3.3483,3.3482,3.3482,0,3.2837,3.2916,3.2926,3.2981,3.3069,3.3067,3.3155,3.3174,3.3209,3.3268,3.3251,3.3307,3.3311,3.337,3.3375,3.3465,3.348,3.3489,3.3489,3.3491,3.349,3.3513,3.3505,3.3487,3.3486,3.3485,3.3484,0,3.2974,3.2983,3.3079,3.3117,3.3128,3.3192,3.3225,3.3278,3.329,3.3365,3.3383,3.3403,3.3471,3.3481,3.3562,3.3565,3.3673,3.3664,3.3659,3.3658,3.3725,3.3719,3.3939,3.3968,3.3779,3.3781,3.3783,0,3.3068,3.3128,3.3172,3.321,3.3234,3.3295,3.3333,3.3334,3.3375,3.3428,3.3475,3.3541,3.3593,3.3703,3.3726,3.3787,3.378,3.3853,3.379,3.3789,3.3783,3.3779,3.3786,3.3866,3.3868,3.3869,3.3871,0,3.3233,3.3235,3.3289,3.3346,3.3392,3.3437,3.3479,3.3512,3.3519,3.3565,3.3634,3.3675,3.3756,3.3822,3.3883,3.3907,3.3892,3.3891,3.391,3.3912,3.3906,3.3911,3.3693,3.3886,3.3884,3.3883,3.3882,3.3882,3.3352,3.3404,3.3444,3.3506,3.3538,3.3578,3.363,3.3648,3.3705,3.377,3.3768,3.3843,3.3886,3.3966,3.3995,3.4055,3.4031,3.4059,3.4066,3.4073,3.408,3.3896,3.4066,3.4065,3.4065,3.4065,3.4064,0,3.3517,3.3541,3.3598,3.3658,3.3707,3.3685,3.3732,3.3775,3.3841,3.3881,3.3933,3.4012,3.4076,3.4104,3.4167,3.421,3.4205,3.4227,3.4224,3.4231,3.4096,3.4074,3.4231,3.4231,3.4231,3.4231,3.4231,3.423,3.3609,3.3697,3.3704,3.3808,3.3832,3.3905,3.3933,3.3971,3.4003,3.4092,3.4144,3.4161,3.4197,3.4263,3.4321,3.4328,3.4353,3.4379,3.4382,3.4257,3.424,3.4224,3.4203,3.4384,3.4384,3.4511,3.4513,3.4514]},{"header":{"parameterUnit":"m.s-1","parameterCategory":1,"la1":30.2991,"la2":30.254,"lo1":-89.0895,"lo2":-89.0444,"dy":0.0017,"dx":0.0017,"nx":28,"ny":28,"refTime":"2024-03-09T03:00:00:Z","depth":0,"parameterNumber":3,"parameterNumberName":"V-component_of_WINDS"},"data":[0,0,0,0,0,0,0,0,0,0,0,0,0,0,0,0,0,0,0,0,0,0,0,0,0,0,0,0,0,0,0,0,0,0,0,0,0,0,0,0,0,0,0,0,0,0,0,0,0,0,0,0,0,0,0,0,0,0,3.1384,3.1386,0,3.1569,3.1571,3.1573,3.1569,3.1567,3.1564,3.1562,3.1751,3.1758,3.1766,0,0,0,0,0,0,0,0,0,0,0,0,0,3.1026,3.1032,3.1384,3.1386,3.1388,3.1568,3.1571,3.1574,3.157,3.1567,3.1563,3.1561,3.1749,3.1758,3.1766,0,0,0,0,0,0,0,0,0,0,0,0,0,3.1193,3.1034,3.1383,3.1408,3.1412,3.1568,3.1571,3.1574,3.157,3.1566,3.1563,3.1559,3.1746,3.1757,3.1768,3.1911,0,0,3.1801,3.1806,0,0,0,0,0,0,0,0,3.1184,3.1206,3.1402,3.1407,3.1411,3.1542,3.1514,3.1687,3.1571,3.151,3.1562,3.1557,3.1685,3.1701,3.1744,3.192,3.1928,3.1802,3.1809,3.1814,3.1817,0,0,0,0,0,0,0,3.1172,3.1198,3.1457,3.1405,3.1411,3.1409,3.1429,3.1547,3.1616,3.1515,3.1515,3.1537,3.1687,3.1733,3.1748,3.1931,3.1802,3.1812,3.1819,3.1823,3.2233,3.2237,0,0,0,0,0,0,3.1155,3.1189,3.1451,3.1462,3.1286,3.1419,3.1441,3.1504,3.1615,3.1628,3.154,3.1536,3.1716,3.1735,3.1755,3.193,3.1814,3.1824,3.1831,3.2229,3.2234,3.2238,0,0,0,0,0,0,3.1148,3.1179,3.1444,3.1326,3.1359,3.1429,3.15,3.151,3.1556,3.1634,3.1646,3.1575,3.1714,3.1739,3.1872,3.1936,3.1829,3.1839,3.2224,3.223,3.2236,3.2281,0,0,0,0,0,0,3.1137,3.1176,3.1232,3.1327,3.1366,3.1558,3.1504,3.1516,3.1575,3.1572,3.167,3.1682,3.1713,3.1855,3.1883,3.1949,3.1848,3.2218,3.2227,3.2234,3.2274,3.2288,3.23,0,0,0,0,0,3.1125,3.1237,3.1235,3.1266,3.1437,3.1562,3.1584,3.1617,3.158,3.1637,3.1686,3.1679,3.1924,3.1869,3.19,3.1971,3.2214,3.2224,3.2234,3.2268,3.2285,3.2299,0,0,0,0,0,0,3.1148,3.125,3.1248,3.1395,3.147,3.1561,3.1633,3.1634,3.1721,3.1714,3.175,3.1772,3.1905,3.1951,3.1888,3.2115,3.2065,3.2081,3.208,3.2097,3.211,3.2096,3.1857,0,0,0,0,0,3.117,3.1264,3.1348,3.1469,3.1506,3.1563,3.1619,3.1638,3.1717,3.1748,3.1808,3.1885,3.1979,3.204,3.2131,3.228,3.2301,3.2343,3.2356,3.2366,3.238,3.2462,3.2481,3.227,3.227,3.227,0,0,3.1217,3.1284,3.1341,3.1475,3.1535,3.1631,3.159,3.1693,3.1765,3.1764,3.1893,3.1939,3.2027,3.2168,3.2234,3.2211,3.2443,3.2379,3.2386,3.2395,3.2473,3.2493,3.2511,3.2276,3.2275,3.2274,0,0,3.1351,3.1412,3.1519,3.158,3.1671,3.1708,3.1734,3.1825,3.1856,3.1986,3.1987,3.2072,3.2233,3.2296,3.2349,3.2505,3.2502,3.2533,3.2601,3.268,3.2697,3.2712,3.2767,3.2787,3.2547,3.2547,3.2547,0,3.1398,3.1543,3.1574,3.1678,3.1737,3.174,3.1848,3.1906,3.2022,3.2062,3.2035,3.2237,3.2296,3.2452,3.249,3.2532,3.2563,3.2523,3.2692,3.2707,3.2722,3.2775,3.2796,3.255,3.255,3.2549,3.2549,0,3.1596,3.1696,3.1772,3.1884,3.1951,3.2057,3.2103,3.2167,3.2179,3.2218,3.235,3.2421,3.2526,3.2564,3.2577,3.2722,3.2704,3.2684,3.2635,3.2745,3.2795,3.2816,3.2555,3.2554,3.2553,3.2552,0,0,3.1752,3.1879,3.1906,3.1957,3.2057,3.2135,3.224,3.2343,3.2397,3.2476,3.2565,3.2701,3.2682,3.2742,3.2761,3.283,3.2949,3.2802,3.2804,3.2827,3.3112,3.3128,3.3151,3.2947,3.2951,3.2954,3.3105,0,3.1898,3.2085,3.2115,3.228,3.2372,3.2375,3.2467,3.2538,3.2577,3.2661,3.2703,3.2799,3.2767,3.2803,3.2872,3.292,3.3007,3.291,3.303,3.3034,3.3009,3.3178,3.3195,3.3334,3.3125,3.3128,3.3131,0,3.2093,3.2177,3.2351,3.2437,3.2477,3.2559,3.2655,3.2735,3.2815,3.2838,3.2905,3.2916,3.3024,3.2969,3.3118,3.3051,3.3102,3.3133,3.3139,3.3153,3.309,3.3196,3.3379,3.34,3.3162,3.316,3.3158,0,3.219,3.2346,3.247,3.2513,3.2618,3.2675,3.2721,3.2797,3.2856,3.294,3.2978,3.3073,3.3125,3.3198,3.3234,3.319,3.3381,3.3329,3.3404,3.3403,3.3445,3.3442,3.3639,3.3476,3.3476,3.3475,3.3475,0,3.2349,3.2456,3.2515,3.2592,3.271,3.2743,3.286,3.2904,3.2971,3.3056,3.3064,3.3143,3.3185,3.327,3.3299,3.3418,3.3441,3.3463,3.347,3.3464,3.3461,3.3498,3.349,3.3481,3.348,3.3479,3.3478,0,3.2478,3.2523,3.2658,3.2745,3.2769,3.2853,3.2927,3.3001,3.3039,3.3145,3.3172,3.3232,3.3332,3.3375,3.3498,3.3517,3.3655,3.3653,3.3628,3.363,3.3703,3.3696,3.3932,3.3964,3.3779,3.378,3.3782,0,3.2578,3.266,3.2755,3.2812,3.286,3.2952,3.3012,3.3047,3.311,3.3206,3.3268,3.3369,3.3451,3.3611,3.3665,3.3759,3.3761,3.3837,3.3775,3.3766,3.3763,3.3758,3.3766,3.3849,3.3851,3.3852,3.3854,0,3.275,3.2768,3.2854,3.2949,3.3021,3.3097,3.3171,3.3217,3.3264,3.3333,3.3436,3.35,3.3625,3.3725,3.3822,3.3868,3.3869,3.3872,3.3895,3.389,3.3872,3.3883,3.366,3.3867,3.3866,3.3865,3.3864,3.3863,3.2868,3.2941,3.3019,3.3115,3.3174,3.3243,3.3317,3.3363,3.345,3.3555,3.357,3.368,3.3756,3.3886,3.3937,3.4023,3.4003,3.4036,3.4044,3.4052,3.4057,3.3857,3.404,3.404,3.404,3.4039,3.4039,0,3.3041,3.3091,3.3179,3.3283,3.3358,3.3351,3.3433,3.3496,3.3593,3.3664,3.3745,3.3862,3.3958,3.4019,3.4116,3.4173,3.4175,3.4197,3.4194,3.4205,3.4068,3.404,3.4193,3.4193,3.4193,3.4193,3.4193,3.4193,3.314,3.3262,3.3289,3.344,3.3489,3.3597,3.3644,3.3707,3.3764,3.3895,3.3975,3.4014,3.4081,3.4182,3.427,3.4285,3.4321,3.4344,3.4358,3.423,3.4214,3.4199,3.4172,3.4351,3.4351,3.4487,3.4489,3.449]}]]